Total_Precipitation_Accumulation
0.01 0.04 0.18 0.31 0.46 0.89 1.13 0.78 0.31 0.13 0.11 0.17 0.25 0.30 0.34 0.29 0.33 0.50 0.24 0.13 0.05 0.03 0.03 0.05 0.07 0.07 0.08 0.09 0.10 0.11 0.12 0.11 0.09 0.08 0.07 0.07 0.05 0.04 0.04 0.04 0.04 0.04 0.04 0.04 0.04 0.05 0.05 0.05 0.04
0.01 0.07 0.21 0.30 0.63 1.20 1.05 0.96 0.24 0.11 0.11 0.22 0.25 0.27 0.31 0.31 0.18 0.17 0.15 0.13 0.07 0.06 0.03 0.03 0.06 0.08 0.07 0.08 0.10 0.11 0.11 0.10 0.10 0.12 0.11 0.10 0.05 0.05 0.04 0.04 0.04 0.05 0.04 0.03 0.03 0.03 0.03 0.03 0.03
0.03 0.11 0.21 0.27 0.55 0.83 0.56 0.46 0.15 0.09 0.15 0.22 0.24 0.22 0.25 0.33 0.23 0.19 0.13 0.10 0.08 0.06 0.05 0.05 0.06 0.07 0.08 0.09 0.11 0.13 0.12 0.11 0.11 0.16 0.16 0.13 0.08 0.08 0.07 0.05 0.04 0.05 0.05 0.03 0.03 0.03 0.03 0.02 0.03
0.03 0.09 0.15 0.22 0.34 0.45 0.38 0.22 0.10 0.10 0.13 0.18 0.21 0.22 0.31 0.25 0.17 0.21 0.22 0.20 0.09 0.08 0.06 0.08 0.09 0.09 0.09 0.10 0.11 0.15 0.17 0.14 0.14 0.16 0.15 0.14 0.11 0.13 0.11 0.06 0.05 0.06 0.06 0.05 0.04 0.03 0.03 0.03 0.03
0.03 0.07 0.12 0.16 0.21 0.31 0.31 0.20 0.13 0.09 0.10 0.16 0.22 0.27 0.36 0.25 0.19 0.27 0.30 0.27 0.15 0.10 0.07 0.09 0.11 0.11 0.09 0.09 0.10 0.12 0.15 0.16 0.18 0.18 0.14 0.11 0.08 0.08 0.08 0.07 0.06 0.06 0.06 0.06 0.05 0.04 0.04 0.05 0.05
0.03 0.05 0.08 0.09 0.14 0.22 0.22 0.14 0.12 0.11 0.16 0.18 0.24 0.38 0.48 0.38 0.27 0.25 0.30 0.24 0.17 0.14 0.11 0.13 0.15 0.14 0.13 0.11 0.11 0.11 0.11 0.12 0.12 0.13 0.11 0.08 0.07 0.10 0.11 0.10 0.07 0.07 0.07 0.07 0.07 0.06 0.07 0.07 0.06
0.02 0.02 0.04 0.05 0.08 0.15 0.16 0.12 0.11 0.10 0.11 0.16 0.22 0.43 0.58 0.63 0.46 0.32 0.35 0.35 0.25 0.17 0.14 0.15 0.16 0.15 0.16 0.18 0.15 0.14 0.14 0.14 0.16 0.16 0.14 0.12 0.11 0.11 0.13 0.15 0.14 0.14 0.14 0.14 0.12 0.10 0.09 0.10 0.09
0.01 0.01 0.01 0.02 0.03 0.08 0.10 0.11 0.10 0.10 0.11 0.14 0.20 0.35 0.64 0.61 0.39 0.39 0.54 0.53 0.40 0.29 0.25 0.20 0.19 0.20 0.17 0.16 0.18 0.18 0.18 0.18 0.17 0.17 0.15 0.15 0.15 0.16 0.19 0.19 0.20 0.24 0.27 0.27 0.21 0.19 0.17 0.16 0.14
0.01 0.01 0.01 0.01 0.01 0.03 0.04 0.07 0.07 0.07 0.10 0.18 0.23 0.39 0.58 0.44 0.38 0.44 0.79 0.77 0.56 0.39 0.34 0.31 0.25 0.25 0.24 0.20 0.19 0.24 0.26 0.25 0.23 0.26 0.25 0.25 0.30 0.37 0.42 0.41 0.47 0.46 0.49 0.50 0.45 0.42 0.40 0.36 0.25
0.00 0.00 0.00 0.00 0.00 0.01 0.03 0.06 0.06 0.07 0.17 0.47 0.59 0.60 0.63 0.53 0.59 0.72 0.94 0.74 0.56 0.50 0.46 0.44 0.41 0.34 0.32 0.32 0.39 0.46 0.42 0.43 0.41 0.54 0.59 0.62 0.75 0.73 0.53 0.60 0.83 0.95 1.03 0.99 0.95 0.92 0.77 0.66 0.58
0.00 0.00 0.00 0.00 0.00 0.00 0.01 0.04 0.07 0.10 0.36 0.74 0.86 0.75 0.64 0.70 0.78 0.95 1.14 1.05 0.75 0.63 0.57 0.56 0.55 0.53 0.51 0.61 0.54 0.59 0.69 0.78 0.76 0.80 0.86 0.93 0.95 0.81 0.70 0.80 1.04 1.30 1.39 1.29 1.51 1.54 1.15 1.17 1.29
0.00 0.00 0.00 0.00 0.00 0.00 0.00 0.01 0.06 0.18 0.39 0.49 0.61 0.79 0.85 0.91 1.15 1.29 1.28 1.33 1.09 0.82 0.72 0.85 0.72 0.75 0.90 0.92 0.70 0.68 0.75 0.83 0.91 1.09 1.11 1.18 1.30 1.23 1.17 1.20 1.26 1.46 1.62 1.81 1.87 1.95 1.79 1.72 1.65
0.00 0.00 0.00 0.00 0.00 0.00 0.01 0.04 0.13 0.27 0.36 0.43 0.67 0.99 1.21 1.21 1.43 1.54 1.48 1.69 1.48 1.23 1.09 1.02 1.02 1.09 1.20 1.09 1.00 0.92 1.01 1.05 1.09 1.16 1.28 1.31 1.52 1.62 1.61 1.52 1.48 1.49 1.63 1.79 1.90 1.96 2.26 2.36 2.03
0.00 0.00 0.00 0.00 0.00 0.01 0.04 0.09 0.19 0.32 0.46 0.59 0.79 1.05 1.31 1.52 1.67 1.61 1.71 1.81 1.73 1.57 1.55 1.36 1.27 1.39 1.49 1.50 1.52 1.50 1.33 1.34 1.34 1.30 1.30 1.38 1.57 1.74 1.82 1.73 1.69 1.58 1.61 1.76 1.93 2.10 2.50 2.50 2.32
0.00 0.01 0.02 0.02 0.02 0.04 0.06 0.22 0.33 0.45 0.55 0.64 0.80 0.94 1.23 1.69 1.88 1.83 1.89 1.82 1.70 1.81 1.81 1.74 1.74 1.92 1.99 1.97 1.94 1.85 1.70 1.62 1.58 1.58 1.57 1.55 1.60 1.71 1.70 1.56 1.52 1.58 1.72 1.85 1.89 2.08 2.37 2.07 2.04
0.01 0.07 0.08 0.08 0.07 0.05 0.10 0.38 0.43 0.48 0.54 0.71 0.83 0.94 1.18 1.47 1.75 1.81 1.97 1.87 1.84 1.97 2.08 2.24 2.27 2.29 2.27 2.30 2.31 2.20 2.05 1.91 1.77 1.71 1.74 1.63 1.57 1.59 1.69 1.53 1.45 1.77 1.90 1.96 2.09 2.22 2.22 2.11 2.06
0.03 0.05 0.06 0.08 0.05 0.04 0.09 0.31 0.40 0.50 0.72 0.90 1.04 1.08 1.07 1.29 1.59 1.82 2.03 2.11 2.23 2.41 2.62 2.86 2.87 2.75 2.59 2.56 2.52 2.44 2.28 2.05 1.85 1.71 1.67 1.55 1.54 1.63 1.85 1.77 1.82 2.08 2.14 2.13 2.05 2.28 2.26 2.12 2.07
0.02 0.04 0.05 0.08 0.06 0.05 0.15 0.37 0.42 0.53 0.80 0.87 1.08 1.16 1.19 1.26 1.63 1.97 2.07 2.19 2.44 2.73 2.98 2.98 2.99 3.19 3.07 2.90 2.70 2.45 2.07 1.82 1.77 1.74 1.59 1.57 1.63 1.76 2.01 1.85 1.86 2.04 2.13 2.09 2.03 1.99 2.05 1.87 1.86
0.02 0.04 0.07 0.09 0.07 0.08 0.20 0.44 0.60 0.72 0.94 0.94 0.91 1.01 1.09 1.19 1.40 1.65 1.83 2.10 2.42 2.59 2.82 3.05 3.21 3.27 3.09 2.81 2.53 2.30 2.10 1.97 1.78 1.69 1.61 1.57 1.56 1.63 1.88 1.78 1.88 1.92 1.88 1.86 1.91 1.90 1.76 1.49 1.71
0.04 0.06 0.08 0.12 0.09 0.12 0.28 0.49 0.72 0.73 0.81 0.85 0.76 0.79 0.91 1.16 1.33 1.60 1.71 1.79 2.05 2.32 2.65 2.89 3.13 3.16 2.91 2.58 2.37 2.25 2.16 1.86 1.63 1.62 1.59 1.60 1.68 1.67 1.74 1.77 1.76 1.79 1.79 1.69 1.66 1.74 1.57 1.32 1.50
0.06 0.07 0.08 0.09 0.10 0.18 0.30 0.66 0.87 0.72 0.69 0.74 0.74 0.79 0.91 1.23 1.60 1.75 1.61 1.62 1.75 1.96 2.16 2.34 2.44 2.38 2.21 2.15 2.14 2.12 2.09 1.83 1.76 1.83 1.86 1.84 1.86 1.83 1.82 1.75 1.63 1.51 1.46 1.39 1.41 1.50 1.48 1.33 1.33
0.07 0.06 0.05 0.06 0.11 0.28 0.30 0.71 1.08 0.88 0.71 0.79 0.84 0.81 1.10 1.36 1.35 1.39 1.47 1.52 1.62 1.77 1.96 2.13 2.07 1.89 1.73 1.76 1.90 1.96 1.90 1.86 2.01 2.22 2.12 1.89 1.74 1.61 1.45 1.32 1.30 1.27 1.25 1.15 1.10 1.20 1.24 1.17 1.11
0.06 0.05 0.06 0.07 0.11 0.24 0.30 0.50 0.93 0.93 0.95 0.86 0.81 0.89 1.17 1.17 1.07 1.06 1.17 1.26 1.29 1.45 1.60 1.75 1.82 1.71 1.63 1.61 1.67 1.78 1.78 1.76 1.76 1.75 1.71 1.58 1.41 1.22 1.05 0.98 0.98 0.97 0.96 0.91 0.87 0.89 0.91 0.95 0.95
0.05 0.06 0.11 0.16 0.25 0.50 0.36 0.40 0.76 0.93 0.80 0.68 0.73 0.77 0.92 0.93 0.88 0.91 0.93 0.99 1.06 1.15 1.17 1.17 1.28 1.33 1.35 1.37 1.40 1.43 1.41 1.34 1.26 1.18 1.15 1.07 0.98 0.82 0.70 0.66 0.70 0.75 0.81 0.80 0.77 0.79 0.78 0.84 0.95
0.05 0.09 0.35 0.66 0.85 0.83 0.41 0.47 0.86 0.74 0.56 0.58 0.71 0.70 0.65 0.63 0.64 0.72 0.73 0.75 0.82 0.86 0.85 0.87 0.96 1.08 1.07 1.01 1.03 1.07 1.04 0.98 0.90 0.87 0.84 0.80 0.74 0.63 0.57 0.54 0.58 0.65 0.72 0.69 0.65 0.66 0.75 0.88 0.97
0.07 0.08 0.28 0.48 0.54 0.59 0.47 0.77 1.16 0.77 0.58 0.63 0.65 0.58 0.51 0.51 0.50 0.58 0.65 0.69 0.68 0.66 0.68 0.71 0.77 0.82 0.79 0.74 0.76 0.77 0.79 0.77 0.71 0.70 0.61 0.58 0.58 0.59 0.58 0.53 0.54 0.55 0.60 0.59 0.62 0.62 0.70 0.82 0.90
0.08 0.06 0.10 0.21 0.24 0.34 0.53 0.79 0.84 0.54 0.48 0.54 0.54 0.50 0.50 0.51 0.48 0.48 0.49 0.52 0.51 0.48 0.49 0.54 0.64 0.68 0.71 0.70 0.67 0.63 0.63 0.60 0.55 0.51 0.48 0.45 0.47 0.51 0.57 0.57 0.58 0.59 0.63 0.66 0.73 0.77 0.85 1.00 1.06
0.08 0.08 0.12 0.17 0.23 0.33 0.46 0.74 0.78 0.56 0.47 0.34 0.28 0.23 0.23 0.24 0.25 0.24 0.25 0.25 0.25 0.29 0.36 0.44 0.47 0.48 0.52 0.53 0.55 0.55 0.51 0.46 0.40 0.36 0.36 0.36 0.37 0.42 0.50 0.57 0.58 0.60 0.61 0.65 0.76 0.95 1.10 1.20 1.25
0.10 0.08 0.08 0.09 0.12 0.23 0.46 0.62 0.42 0.37 0.31 0.27 0.21 0.14 0.13 0.11 0.13 0.17 0.18 0.22 0.23 0.27 0.36 0.44 0.45 0.46 0.48 0.47 0.47 0.47 0.45 0.42 0.36 0.31 0.30 0.31 0.34 0.37 0.40 0.47 0.51 0.54 0.57 0.61 0.70 0.83 1.02 1.13 1.16
0.11 0.08 0.07 0.10 0.09 0.13 0.23 0.34 0.19 0.21 0.20 0.19 0.18 0.15 0.15 0.16 0.16 0.17 0.18 0.24 0.29 0.29 0.31 0.36 0.40 0.45 0.54 0.63 0.71 0.72 0.63 0.54 0.45 0.36 0.31 0.30 0.33 0.36 0.37 0.37 0.41 0.42 0.46 0.53 0.63 0.75 0.86 0.95 0.98